Location: Chatou
(48.8898°N, 2.1586°E)
Time: 13:10:20
(UTC+00:00)

Cosmos 1553 Rocket - Visible Passes

Search period start: 25 September 2023 00:00
Search period end: 05 October 2023 00:00
Orbit: 940 x 1008 km, 82.9° (Epoch: 24 September)

Date Brightness Start Highest point End Pass type
(mag) Time Alt. Az. Time Alt. Az. Time Alt. Az.
25 Sep 4.9 02:04:39 10° N 02:10:30 45° ENE 02:13:21 28° SE visible
25 Sep 4.5 03:50:18 10° NNW 03:55:43 34° W 03:57:53 27° WSW visible
26 Sep 6.4 00:45:55 10° NNE 00:49:14 15° ENE 00:52:30 10° E visible
26 Sep 4.0 02:29:35 10° N 02:35:44 74° E 02:37:04 56° SE visible
26 Sep 5.1 04:16:07 10° NW 04:20:26 20° W 04:21:37 19° W visible
27 Sep 5.8 01:10:01 10° NNE 01:14:53 24° ENE 01:16:25 22° E visible
27 Sep 3.8 02:54:43 10° NNW 03:00:48 67° W 03:01:00 67° WSW visible
27 Sep 5.6 04:43:05 10° WNW 04:44:59 11° WNW 04:45:34 11° W visible
28 Sep 5.1 01:34:38 10° N 01:40:21 39° ENE 01:40:30 39° ENE visible
28 Sep 4.5 03:20:04 10° NNW 03:25:04 39° WNW 03:25:04 39° WNW visible
29 Sep 6.4 00:16:20 10° NNE 00:18:56 13° NE 00:20:05 12° ENE visible
29 Sep 4.5 01:59:30 10° N 02:04:41 57° NE 02:04:41 57° NE visible
29 Sep 5.2 03:45:43 10° NNW 03:49:16 22° WNW 03:49:16 22° WNW visible
30 Sep 6.0 00:40:07 10° NNE 00:44:21 21° ENE 00:44:21 21° ENE visible
30 Sep 4.5 02:24:35 10° NNW 02:28:57 49° NNW 02:28:57 49° NNW visible
30 Sep 5.7 04:12:08 10° NW 04:13:32 13° WNW 04:13:32 13° WNW visible
01 Oct 5.5 01:04:37 10° N 01:08:41 30° NE 01:08:41 30° NE visible
01 Oct 5.0 02:49:51 10° NNW 02:53:17 32° NW 02:53:17 32° NW visible
01 Oct 6.6 23:47:05 10° NE 23:48:30 11° NE 23:48:30 11° NE visible
02 Oct 5.3 01:29:26 10° N 01:33:05 35° NNE 01:33:05 35° NNE visible
02 Oct 5.5 03:15:24 10° NNW 03:17:42 20° NW 03:17:42 20° NW visible
03 Oct 6.3 00:10:15 10° NNE 00:12:57 17° NE 00:12:57 17° NE visible
03 Oct 5.3 01:54:27 10° N 01:57:33 32° N 01:57:33 32° N visible
03 Oct 6.0 03:41:28 10° NW 03:42:09 12° NW 03:42:09 12° NW visible
04 Oct 6.0 00:34:38 10° N 00:37:26 22° NNE 00:37:26 22° NNE visible
04 Oct 5.5 02:19:40 10° NNW 02:22:03 24° NNW 02:22:03 24° NNW visible
